Regional Weather Roundup
Issued by NWS

Home | Current Version | Previous Version | Text Only | Print | Product List | Glossary Off
Versions: 1 2 3 4 5 6 7 8 9 10 11 12 13 14 15 16 17 18 19 20 21 22 23 24 25 26 27 28 29 30 31 32 33 34 35 36 37 38 39 40 41 42 43 44 45 46 47 48 49 50

000
ASUS44 KMEG 032110
RWRTN
TENNESSEE HOURLY STATE WEATHER ROUNDUP
NATIONAL WEATHER SERVICE MEMPHIS TN
300 PM CST SAT DEC 03 2016

TNZ002-004-019-021-049-052-054-088>092-032200-
WEST TENNESSEE

CITY           SKY/WX    TMP DP  RH WIND       PRES   REMARKS
MEMPHIS INTL   LGT RAIN  45  41  86 E8        30.22F
NWS MEMPHIS      N/A     44 N/A N/A MISG        N/A
JACKSON        LGT RAIN  44 N/A N/A CALM      30.27F
DYERSBURG      CLOUDY   N/A N/A N/A E5        30.26F
UNION CITY     SUNNY     43  32  65 E7        30.27S
PARIS          SUNNY     41  30  65 E7        30.27F
HUNTINGDON     SUNNY     45  34  65 E6        30.26F
LEXINGTON      MOSUNNY   45  34  65 NE5       30.25F
$$

TNZ008-025-027-028-033-062-065-066-032200-
NORTH MIDDLE TENNESSEE

CITY           SKY/WX    TMP DP  RH WIND       PRES   REMARKS
NASHVILLE      CLOUDY    44  31  60 NE6       30.30F
PORTLAND       SUNNY     41  32  70 NE6       30.29F
CLARKSVILLE    CLOUDY    43  31  62 E6        30.29F
SMYRNA         CLOUDY    44  32  62 N7        30.30F
CROSSVILLE     CLOUDY    41  29  62 VRB5      30.25F
$$

TNZ061-075-076-078-094-096-097-032200-
SOUTH MIDDLE TENNESSEE

CITY           SKY/WX    TMP DP  RH WIND       PRES   REMARKS
FAYETTEVILLE   SUNNY     46  34  61 N7        30.25S
TULLAHOMA      MOSUNNY   43  28  56 NE5       30.26F
WINCHESTER     SUNNY     45  34  65 N6        30.26S
MCMINNVILLE    SUNNY     43  32  65 NE3       30.26F
COLUMBIA       CLOUDY    45  41  87 NE3       30.25F
SHELBYVILLE    CLOUDY    45  36  70 N7        30.28F
$$

TNZ017-018-042-046-047-032200-
NORTHEAST TENNESSEE

CITY           SKY/WX    TMP DP  RH WIND       PRES   REMARKS
TRI CITIES     CLOUDY    42  29  59 N3        30.27S
ELIZABETHTON   CLOUDY    43  30  61 CALM      30.26S
$$

TNZ012-013-036-069-073-074-032200-
CENTRAL EAST TENNESSEE

CITY           SKY/WX    TMP DP  RH WIND       PRES   REMARKS
KNOXVILLE      CLOUDY    45  32  60 NE7       30.27S
OAK RIDGE      CLOUDY    45  30  55 VRB5      30.29F
DOWNTOWN KNOXV SUNNY     46  34  61 CALM      30.29S
GATLINBURG     SUNNY     43  30  61 N5        30.27F
MORRISTOWN     SUNNY     43  32  65 CALM      30.27S
JACKSBORO      SUNNY     43  32  65 NE5       30.31S
$$

TNZ083-085-099-032200-
SOUTHEAST TENNESSEE

CITY           SKY/WX    TMP DP  RH WIND       PRES   REMARKS
CHATTANOOGA    CLOUDY    47  32  56 NE9       30.27S
$$

SKY/WX REPORTED AS FAIR MEANS FEW OR NO CLOUDS BELOW
12 THOUSAND FEET.




USA.gov is the U.S. government's official web portal to all federal, state and local government web resources and services.